Tracking 27420 objects as of 28-May-2023
HD Live streaming from Space Station
objects crossing your sky now

STARLINK-5716

Track STARLINK-5716 now!
10-day predictions
STARLINK-5716 is classified as:


NORAD ID: 56504
Int'l Code: 2023-065B
Perigee: 361.0 km
Apogee: 363.3 km
Inclination: 43.0 °
Period: 91.6 minutes
Semi major axis: 6733 km
RCS: Unknown
Launch date: May 14, 2023
Source: United States (US)
Launch site: AIR FORCE EASTERN TEST RANGE (AFETR)
Your satellite tracking list
Your tracking list is empty




NASA's NSSDC Master Catalog

Two Line Element Set (TLE):
1 56504U 23065B   23148.06742426  .00003492  00000-0  30062-4 0  9998
2 56504  43.0009   0.7053 0001654 273.2666  86.8013 15.71356244  3390
Source of the keplerian elements: AFSPC